Precipitable_Water
1.31 1.35 1.46 1.51 1.54 1.51 1.56 1.60 1.63 1.68 1.69 1.68 1.63 1.71 1.72 1.70 1.69 1.69 1.76 1.73 1.71 1.71 1.72 1.72 1.68 1.60 1.58 1.58 1.62 1.61 1.56 1.51 1.54 1.54 1.51 1.51 1.54 1.57 1.63 1.66 1.60 1.59 1.56 1.54 1.55 1.58 1.60 1.58 1.57 1.59 1.60 1.50 1.43 1.40 1.47 1.51 1.50 1.51 1.60 1.69 1.66 1.66 1.57 1.46 1.31 1.25 1.40 1.55 1.41 1.31 1.25 1.21 1.10 1.14 1.10 1.16 1.20 1.26 1.31 1.27 1.24 1.26 1.23 1.25 1.30
1.31 1.31 1.35 1.42 1.47 1.47 1.51 1.55 1.63 1.67 1.69 1.69 1.65 1.69 1.70 1.67 1.68 1.70 1.69 1.77 1.77 1.70 1.68 1.70 1.71 1.67 1.57 1.57 1.58 1.66 1.68 1.60 1.60 1.62 1.59 1.56 1.55 1.56 1.56 1.58 1.59 1.56 1.56 1.52 1.58 1.57 1.53 1.51 1.53 1.52 1.46 1.38 1.46 1.47 1.50 1.53 1.51 1.52 1.56 1.63 1.56 1.50 1.55 1.38 1.34 1.26 1.15 1.26 1.21 1.23 1.15 1.20 1.06 1.17 1.14 1.14 1.21 1.28 1.27 1.25 1.27 1.31 1.30 1.33 1.36
1.39 1.37 1.32 1.36 1.41 1.45 1.47 1.50 1.57 1.62 1.62 1.67 1.67 1.68 1.72 1.76 1.77 1.68 1.68 1.72 1.77 1.74 1.74 1.67 1.71 1.70 1.62 1.58 1.59 1.65 1.70 1.69 1.66 1.62 1.63 1.63 1.58 1.54 1.57 1.60 1.61 1.57 1.52 1.47 1.45 1.49 1.46 1.44 1.43 1.45 1.48 1.45 1.50 1.59 1.69 1.67 1.63 1.57 1.55 1.51 1.46 1.48 1.49 1.44 1.31 1.18 1.09 1.06 1.11 1.01 1.01 1.02 1.03 1.03 1.13 1.20 1.25 1.28 1.24 1.24 1.25 1.30 1.35 1.37 1.37
1.42 1.39 1.34 1.35 1.40 1.40 1.41 1.46 1.51 1.56 1.56 1.62 1.64 1.70 1.74 1.74 1.75 1.72 1.69 1.71 1.71 1.73 1.74 1.69 1.69 1.70 1.63 1.62 1.65 1.67 1.68 1.70 1.67 1.64 1.65 1.66 1.62 1.58 1.59 1.64 1.68 1.69 1.63 1.56 1.53 1.54 1.49 1.46 1.46 1.46 1.49 1.47 1.48 1.51 1.52 1.51 1.41 1.39 1.40 1.45 1.50 1.49 1.40 1.32 1.30 1.16 1.08 0.90 0.93 0.91 0.97 0.94 1.00 1.08 1.14 1.16 1.20 1.23 1.24 1.26 1.31 1.31 1.35 1.41 1.41
1.44 1.41 1.38 1.33 1.36 1.37 1.39 1.43 1.44 1.48 1.54 1.59 1.61 1.71 1.76 1.73 1.74 1.73 1.70 1.70 1.74 1.73 1.72 1.71 1.69 1.68 1.62 1.61 1.64 1.66 1.67 1.70 1.68 1.64 1.64 1.67 1.69 1.67 1.65 1.63 1.61 1.61 1.61 1.59 1.53 1.48 1.45 1.42 1.42 1.44 1.42 1.32 1.31 1.32 1.36 1.32 1.39 1.40 1.38 1.38 1.33 1.31 1.29 1.25 1.18 1.13 0.99 0.88 0.89 0.96 0.99 1.01 1.02 1.00 1.05 1.11 1.20 1.23 1.25 1.23 1.23 1.31 1.37 1.45 1.43
1.46 1.44 1.41 1.36 1.34 1.34 1.35 1.40 1.40 1.42 1.48 1.56 1.59 1.67 1.73 1.74 1.75 1.78 1.75 1.73 1.76 1.80 1.75 1.70 1.71 1.67 1.64 1.61 1.60 1.64 1.67 1.68 1.69 1.68 1.63 1.64 1.66 1.69 1.71 1.70 1.67 1.63 1.59 1.54 1.50 1.44 1.35 1.30 1.29 1.33 1.31 1.26 1.24 1.27 1.29 1.28 1.32 1.28 1.25 1.23 1.21 1.17 1.12 1.08 1.05 0.99 0.96 0.97 0.95 0.87 0.91 0.87 0.89 0.91 1.01 1.15 1.13 1.09 1.10 1.15 1.25 1.38 1.44 1.42 1.41
1.46 1.44 1.43 1.38 1.36 1.35 1.36 1.35 1.40 1.44 1.44 1.49 1.56 1.60 1.64 1.70 1.76 1.79 1.83 1.78 1.77 1.80 1.80 1.78 1.82 1.78 1.75 1.70 1.62 1.61 1.66 1.69 1.68 1.67 1.65 1.67 1.70 1.71 1.72 1.74 1.73 1.72 1.72 1.66 1.58 1.53 1.50 1.47 1.42 1.40 1.37 1.36 1.35 1.36 1.35 1.32 1.28 1.23 1.20 1.20 1.16 1.08 1.02 1.00 1.01 1.00 0.98 0.91 0.83 0.84 0.87 0.93 0.95 0.93 1.04 1.14 1.16 1.15 1.11 1.14 1.17 1.35 1.40 1.36 1.31
1.47 1.43 1.41 1.40 1.38 1.38 1.38 1.38 1.39 1.44 1.47 1.46 1.49 1.53 1.56 1.59 1.69 1.75 1.80 1.78 1.77 1.80 1.82 1.84 1.87 1.87 1.86 1.84 1.81 1.74 1.71 1.73 1.71 1.69 1.70 1.70 1.70 1.73 1.75 1.74 1.69 1.67 1.65 1.64 1.62 1.57 1.53 1.50 1.46 1.45 1.43 1.41 1.40 1.42 1.42 1.35 1.32 1.22 1.22 1.17 1.13 1.07 1.04 1.06 1.04 0.98 0.87 0.81 0.85 0.87 0.93 0.93 1.01 1.13 1.21 1.19 1.11 1.14 1.26 1.23 1.17 1.22 1.24 1.31 1.40
1.49 1.41 1.38 1.37 1.39 1.40 1.39 1.40 1.41 1.40 1.44 1.43 1.40 1.46 1.54 1.57 1.53 1.55 1.61 1.65 1.74 1.80 1.84 1.84 1.80 1.83 1.91 1.93 1.91 1.84 1.79 1.80 1.82 1.77 1.71 1.71 1.71 1.69 1.73 1.74 1.71 1.64 1.59 1.57 1.57 1.54 1.52 1.50 1.44 1.38 1.37 1.43 1.52 1.52 1.47 1.43 1.33 1.23 1.22 1.23 1.22 1.19 1.13 1.06 0.99 0.90 0.86 0.91 0.91 1.00 1.03 1.05 1.11 1.15 1.15 1.12 1.09 1.13 1.28 1.32 1.22 1.27 1.31 1.30 1.41
1.54 1.45 1.38 1.37 1.40 1.40 1.37 1.37 1.37 1.37 1.39 1.39 1.36 1.40 1.47 1.53 1.57 1.54 1.53 1.54 1.56 1.65 1.73 1.81 1.81 1.81 1.86 1.92 1.95 1.91 1.85 1.84 1.88 1.90 1.88 1.80 1.77 1.74 1.74 1.75 1.72 1.69 1.65 1.62 1.62 1.62 1.55 1.49 1.48 1.49 1.51 1.52 1.50 1.49 1.49 1.46 1.43 1.36 1.33 1.31 1.29 1.24 1.17 1.08 1.01 1.01 1.02 0.98 1.00 1.06 1.06 1.10 1.16 1.22 1.20 1.23 1.31 1.37 1.30 1.28 1.21 1.32 1.40 1.38 1.42
1.71 1.50 1.42 1.45 1.44 1.42 1.38 1.34 1.34 1.33 1.38 1.38 1.36 1.36 1.46 1.50 1.53 1.62 1.61 1.58 1.53 1.51 1.55 1.57 1.65 1.74 1.74 1.71 1.71 1.78 1.80 1.84 1.87 1.88 1.86 1.84 1.80 1.73 1.65 1.64 1.68 1.67 1.62 1.57 1.52 1.55 1.57 1.57 1.53 1.48 1.47 1.50 1.51 1.46 1.47 1.57 1.54 1.49 1.46 1.46 1.45 1.35 1.23 1.14 1.09 1.10 1.06 1.03 1.09 1.12 1.15 1.16 1.23 1.29 1.28 1.35 1.45 1.44 1.41 1.42 1.38 1.39 1.35 1.27 1.14
1.83 1.73 1.47 1.48 1.47 1.44 1.40 1.37 1.32 1.37 1.43 1.43 1.40 1.38 1.43 1.49 1.55 1.62 1.66 1.67 1.65 1.59 1.54 1.54 1.56 1.61 1.60 1.63 1.65 1.65 1.66 1.70 1.72 1.75 1.76 1.75 1.75 1.70 1.66 1.59 1.59 1.57 1.56 1.53 1.53 1.53 1.55 1.56 1.56 1.56 1.57 1.49 1.46 1.51 1.57 1.62 1.65 1.66 1.62 1.57 1.54 1.50 1.43 1.31 1.23 1.19 1.20 1.16 1.16 1.23 1.30 1.33 1.37 1.41 1.43 1.48 1.48 1.48 1.51 1.50 1.49 1.45 1.39 1.34 1.35
1.70 1.85 1.64 1.49 1.48 1.49 1.50 1.51 1.48 1.42 1.40 1.38 1.36 1.38 1.46 1.53 1.55 1.53 1.54 1.59 1.60 1.56 1.56 1.53 1.54 1.55 1.52 1.51 1.53 1.58 1.59 1.64 1.65 1.66 1.67 1.67 1.69 1.70 1.69 1.67 1.57 1.51 1.47 1.44 1.45 1.46 1.46 1.42 1.43 1.53 1.58 1.59 1.55 1.56 1.56 1.56 1.58 1.57 1.57 1.59 1.59 1.56 1.52 1.51 1.52 1.46 1.43 1.34 1.34 1.39 1.47 1.49 1.45 1.51 1.62 1.60 1.63 1.49 1.51 1.51 1.57 1.60 1.59 1.49 1.48
1.58 1.73 1.82 1.65 1.59 1.60 1.61 1.63 1.59 1.51 1.49 1.49 1.45 1.39 1.35 1.31 1.41 1.50 1.53 1.55 1.52 1.51 1.51 1.48 1.52 1.53 1.52 1.49 1.47 1.46 1.45 1.50 1.54 1.57 1.58 1.58 1.58 1.60 1.64 1.65 1.61 1.55 1.51 1.47 1.44 1.40 1.39 1.37 1.36 1.38 1.44 1.47 1.50 1.51 1.56 1.59 1.60 1.59 1.57 1.58 1.58 1.59 1.59 1.57 1.57 1.54 1.47 1.42 1.42 1.40 1.55 1.63 1.55 1.60 1.71 1.75 1.65 1.59 1.59 1.59 1.67 1.64 1.62 1.60 1.68
1.74 1.77 1.91 1.91 1.75 1.73 1.68 1.61 1.56 1.54 1.54 1.56 1.54 1.55 1.56 1.50 1.45 1.55 1.56 1.51 1.48 1.45 1.47 1.47 1.47 1.48 1.49 1.49 1.48 1.44 1.43 1.45 1.45 1.46 1.47 1.51 1.54 1.55 1.57 1.59 1.57 1.54 1.53 1.53 1.50 1.46 1.39 1.37 1.34 1.30 1.30 1.33 1.41 1.47 1.47 1.51 1.56 1.59 1.60 1.62 1.68 1.72 1.70 1.66 1.61 1.59 1.55 1.53 1.52 1.56 1.62 1.72 1.76 1.81 1.83 1.86 1.85 1.85 1.89 1.89 1.84 1.78 1.78 1.83 1.81
2.00 2.00 1.92 1.93 1.91 1.89 1.86 1.77 1.70 1.66 1.62 1.63 1.62 1.58 1.55 1.54 1.54 1.66 1.69 1.64 1.65 1.68 1.71 1.68 1.60 1.56 1.55 1.54 1.53 1.50 1.50 1.48 1.46 1.46 1.48 1.49 1.54 1.58 1.57 1.54 1.51 1.52 1.53 1.54 1.53 1.48 1.43 1.39 1.34 1.29 1.27 1.28 1.34 1.39 1.42 1.49 1.52 1.49 1.48 1.55 1.66 1.82 1.89 1.92 1.85 1.77 1.68 1.63 1.64 1.70 1.77 1.82 1.86 1.89 1.94 1.95 1.95 1.99 2.00 2.02 1.97 1.88 1.75 1.65 1.61
2.10 2.17 2.07 2.07 2.03 1.99 1.95 1.89 1.87 1.83 1.81 1.75 1.67 1.65 1.66 1.71 1.76 1.85 1.83 1.79 1.75 1.80 1.86 1.89 1.89 1.83 1.76 1.67 1.60 1.61 1.63 1.60 1.54 1.53 1.55 1.58 1.61 1.67 1.72 1.73 1.73 1.71 1.70 1.71 1.64 1.55 1.48 1.43 1.39 1.35 1.34 1.34 1.38 1.40 1.42 1.45 1.39 1.34 1.33 1.36 1.50 1.66 1.80 1.91 1.93 1.85 1.76 1.73 1.75 1.80 1.85 1.88 1.90 1.92 1.94 1.97 1.96 1.96 1.90 1.77 1.72 1.78 1.68 1.57 1.62
2.02 2.06 2.09 2.14 2.11 2.11 2.07 1.99 1.96 1.95 1.94 1.89 1.84 1.81 1.82 1.87 1.89 1.93 1.85 1.82 1.79 1.84 1.95 2.03 2.07 2.07 2.00 1.93 1.90 1.83 1.82 1.80 1.74 1.70 1.70 1.73 1.78 1.81 1.86 1.87 1.87 1.91 1.95 1.96 1.92 1.80 1.68 1.60 1.57 1.53 1.51 1.53 1.55 1.55 1.58 1.60 1.52 1.45 1.41 1.41 1.47 1.57 1.72 1.85 1.90 1.92 1.92 1.89 1.90 1.92 1.94 1.95 1.97 1.98 1.97 1.95 1.95 1.98 1.87 1.70 1.82 1.87 1.75 1.67 1.58
1.95 1.97 2.02 2.09 2.14 2.15 2.10 2.06 2.03 2.02 2.01 2.02 2.04 1.96 1.89 1.87 1.89 1.92 1.94 1.97 1.92 1.91 1.92 1.95 2.00 2.04 2.06 2.07 2.06 2.01 1.97 1.98 2.01 2.02 2.01 2.00 2.03 2.06 2.05 2.00 1.95 1.97 1.99 2.00 2.07 2.06 2.00 1.92 1.81 1.74 1.76 1.77 1.75 1.72 1.74 1.77 1.73 1.72 1.69 1.63 1.59 1.60 1.69 1.78 1.77 1.77 1.84 1.89 1.94 2.00 2.01 2.05 2.06 2.00 1.96 1.95 2.00 2.07 2.07 2.02 2.03 1.93 1.75 1.69 1.69
2.01 2.04 2.08 2.11 2.11 2.12 2.13 2.09 2.05 2.04 2.06 2.13 2.09 2.15 2.08 2.04 1.98 1.94 1.96 2.01 1.99 1.94 1.92 1.94 1.94 1.96 2.01 2.03 2.05 2.05 2.02 2.03 2.07 2.10 2.12 2.14 2.15 2.17 2.15 2.08 2.02 2.04 2.07 2.07 2.08 2.14 2.12 2.07 1.99 1.89 1.84 1.84 1.85 1.87 1.89 1.89 1.85 1.84 1.85 1.79 1.74 1.72 1.86 1.85 1.85 1.87 1.87 1.92 1.96 2.02 2.04 2.08 2.09 2.06 2.01 2.01 2.05 2.09 2.04 1.97 1.91 1.84 1.74 1.71 1.72
2.00 2.01 2.01 2.06 2.06 2.05 2.09 2.09 2.07 2.06 2.10 2.11 2.16 2.18 2.15 2.11 2.14 2.05 1.94 2.00 2.05 2.02 1.97 1.97 1.99 2.01 2.05 2.04 2.04 2.05 2.06 2.03 2.04 2.05 2.06 2.09 2.16 2.14 2.11 2.09 2.09 2.08 2.06 2.05 2.11 2.15 2.14 2.10 2.05 1.98 1.92 1.90 1.88 1.87 1.85 1.85 1.86 1.85 1.85 1.83 1.82 1.82 1.85 1.80 1.85 1.90 1.89 1.88 1.90 1.93 1.98 2.04 2.06 2.05 2.05 2.04 2.03 2.00 1.83 1.72 1.76 1.79 1.75 1.67 1.62
1.92 1.94 1.94 1.94 1.99 2.04 2.05 2.08 2.09 2.10 2.08 2.05 2.06 2.11 2.13 2.13 2.10 2.09 2.06 2.02 2.00 1.97 1.93 1.96 1.94 1.92 1.94 1.97 1.95 1.95 2.00 2.00 1.97 1.96 1.97 2.00 2.03 2.08 2.07 2.08 2.08 2.06 2.01 2.01 2.09 2.12 2.05 2.00 1.98 1.93 1.89 1.84 1.77 1.78 1.79 1.78 1.76 1.74 1.74 1.75 1.74 1.72 1.71 1.73 1.68 1.63 1.59 1.58 1.56 1.56 1.60 1.62 1.68 1.74 1.72 1.69 1.68 1.62 1.49 1.52 1.63 1.63 1.60 1.58 1.50
1.81 1.83 1.84 1.83 1.84 1.85 1.89 1.90 1.92 1.96 1.95 1.97 1.97 2.01 2.10 2.10 2.11 2.12 2.08 2.05 2.00 1.95 1.91 1.87 1.85 1.84 1.86 1.88 1.88 1.85 1.83 1.81 1.79 1.77 1.80 1.83 1.86 1.88 1.90 1.93 1.99 2.00 1.93 1.90 1.93 1.94 1.97 1.96 1.95 1.93 1.91 1.78 1.63 1.53 1.49 1.43 1.35 1.32 1.31 1.32 1.35 1.39 1.41 1.39 1.38 1.32 1.30 1.29 1.20 1.10 1.12 1.17 1.19 1.21 1.22 1.22 1.24 1.18 1.23 1.29 1.30 1.28 1.26 1.24 1.21
1.66 1.69 1.69 1.72 1.78 1.79 1.81 1.83 1.82 1.84 1.85 1.88 1.90 1.90 1.92 1.96 1.96 1.98 1.90 1.92 1.92 1.90 1.90 1.88 1.82 1.75 1.75 1.76 1.75 1.74 1.75 1.73 1.71 1.70 1.70 1.72 1.71 1.69 1.70 1.73 1.78 1.77 1.80 1.81 1.84 1.86 1.89 1.91 1.91 1.87 1.72 1.48 1.22 1.11 1.10 1.13 1.10 1.11 1.14 1.16 1.19 1.20 1.22 1.27 1.19 1.11 1.10 1.05 0.98 0.91 0.89 0.92 0.93 0.93 0.93 0.96 0.95 1.05 1.10 1.09 1.07 1.07 1.02 0.96 0.87
1.49 1.56 1.58 1.56 1.56 1.59 1.61 1.71 1.71 1.74 1.71 1.63 1.66 1.73 1.77 1.78 1.70 1.72 1.75 1.73 1.77 1.77 1.77 1.81 1.77 1.77 1.76 1.74 1.69 1.70 1.71 1.70 1.67 1.65 1.63 1.59 1.53 1.51 1.53 1.56 1.59 1.62 1.62 1.65 1.66 1.65 1.60 1.48 1.32 1.21 1.12 1.01 0.97 0.94 0.96 1.01 1.05 1.04 1.08 1.08 1.08 1.03 1.04 1.03 0.96 0.95 0.87 0.82 0.78 0.76 0.75 0.75 0.77 0.80 0.82 0.81 0.88 0.94 0.87 0.86 0.86 0.84 0.79 0.73 0.63
1.36 1.41 1.50 1.53 1.56 1.58 1.60 1.55 1.45 1.32 1.32 1.53 1.54 1.45 1.50 1.57 1.60 1.62 1.61 1.62 1.64 1.63 1.63 1.64 1.68 1.65 1.64 1.66 1.64 1.63 1.64 1.56 1.49 1.50 1.50 1.46 1.40 1.35 1.30 1.30 1.32 1.32 1.31 1.25 1.18 1.07 0.96 0.87 0.82 0.81 0.82 0.84 0.84 0.88 0.92 0.95 0.97 0.96 0.94 0.98 0.98 0.86 0.87 0.87 0.84 0.75 0.69 0.68 0.66 0.66 0.67 0.69 0.67 0.68 0.69 0.71 0.76 0.72 0.70 0.65 0.60 0.57 0.60 0.59 0.53
1.26 1.31 1.36 1.40 1.44 1.44 1.39 1.42 1.44 1.47 1.53 1.59 1.65 1.63 1.56 1.46 1.40 1.46 1.49 1.44 1.42 1.51 1.55 1.56 1.54 1.50 1.53 1.57 1.53 1.47 1.41 1.33 1.26 1.24 1.24 1.19 1.12 1.06 1.00 0.96 0.97 0.94 0.89 0.84 0.79 0.74 0.72 0.71 0.69 0.74 0.78 0.83 0.86 0.88 0.86 0.88 0.92 0.92 0.93 0.91 0.88 0.87 0.84 0.81 0.77 0.73 0.70 0.66 0.64 0.65 0.68 0.64 0.61 0.58 0.60 0.63 0.64 0.63 0.60 0.55 0.55 0.56 0.56 0.56 0.53
1.03 1.11 1.13 1.21 1.28 1.35 1.38 1.39 1.34 1.34 1.40 1.45 1.43 1.44 1.45 1.42 1.30 1.32 1.30 1.27 1.29 1.33 1.40 1.36 1.37 1.38 1.37 1.39 1.36 1.30 1.23 1.16 1.09 1.03 1.00 0.98 0.96 0.94 0.90 0.85 0.80 0.75 0.70 0.67 0.66 0.65 0.66 0.69 0.71 0.77 0.83 0.82 0.80 0.80 0.80 0.88 0.95 0.97 0.83 0.82 0.84 0.86 0.86 0.85 0.83 0.79 0.75 0.74 0.72 0.72 0.66 0.58 0.52 0.57 0.62 0.62 0.59 0.56 0.57 0.59 0.58 0.55 0.56 0.55 0.47
1.00 0.99 0.99 1.02 1.13 1.23 1.27 1.31 1.28 1.26 1.27 1.33 1.34 1.37 1.35 1.32 1.30 1.29 1.35 1.33 1.30 1.29 1.29 1.29 1.30 1.32 1.30 1.28 1.23 1.18 1.14 1.09 1.06 1.05 1.01 0.96 0.91 0.85 0.81 0.78 0.75 0.73 0.72 0.69 0.66 0.65 0.68 0.74 0.77 0.80 0.79 0.76 0.72 0.73 0.74 0.76 0.82 0.84 0.82 0.83 0.83 0.82 0.79 0.77 0.74 0.73 0.74 0.72 0.68 0.65 0.60 0.56 0.55 0.59 0.59 0.57 0.57 0.57 0.64 0.61 0.60 0.55 0.56 0.55 0.48
0.89 0.91 0.94 0.93 0.99 1.09 1.16 1.18 1.23 1.19 1.20 1.22 1.25 1.25 1.30 1.30 1.30 1.24 1.21 1.23 1.24 1.27 1.29 1.27 1.27 1.27 1.25 1.25 1.25 1.16 1.11 1.11 1.10 1.03 0.97 0.93 0.90 0.86 0.83 0.80 0.77 0.74 0.72 0.71 0.69 0.62 0.63 0.74 0.77 0.76 0.78 0.76 0.71 0.71 0.72 0.74 0.75 0.75 0.77 0.80 0.81 0.78 0.77 0.76 0.75 0.74 0.72 0.68 0.66 0.62 0.58 0.56 0.55 0.56 0.55 0.55 0.58 0.62 0.65 0.61 0.57 0.59 0.55 0.53 0.52
0.83 0.82 0.81 0.83 0.90 0.97 1.03 1.06 1.06 1.07 1.09 1.12 1.14 1.14 1.17 1.25 1.28 1.24 1.20 1.17 1.16 1.16 1.14 1.12 1.14 1.17 1.18 1.17 1.21 1.21 1.16 1.12 1.06 1.02 0.97 0.93 0.88 0.83 0.80 0.78 0.76 0.73 0.70 0.64 0.60 0.58 0.60 0.70 0.71 0.76 0.80 0.80 0.76 0.74 0.74 0.74 0.74 0.75 0.76 0.79 0.79 0.77 0.75 0.72 0.73 0.72 0.68 0.64 0.62 0.60 0.57 0.56 0.55 0.54 0.53 0.57 0.58 0.60 0.59 0.61 0.61 0.59 0.57 0.54 0.50
0.83 0.85 0.84 0.84 0.84 0.86 0.93 0.99 1.05 1.03 1.00 0.99 0.98 0.95 0.96 0.99 1.06 1.14 1.14 1.10 1.07 1.04 1.02 1.00 0.97 0.94 0.95 0.99 1.01 1.02 1.02 1.00 0.96 0.92 0.88 0.83 0.78 0.75 0.72 0.71 0.70 0.69 0.66 0.65 0.60 0.57 0.64 0.69 0.73 0.76 0.78 0.78 0.79 0.78 0.77 0.76 0.76 0.75 0.75 0.73 0.74 0.75 0.72 0.69 0.72 0.70 0.66 0.62 0.59 0.57 0.57 0.57 0.55 0.56 0.58 0.58 0.58 0.56 0.55 0.54 0.54 0.54 0.53 0.52 0.50
0.93 0.89 0.89 0.83 0.86 0.87 0.87 0.92 0.97 0.98 0.97 0.97 0.97 0.97 0.93 0.88 0.85 0.88 0.98 1.03 1.00 0.96 0.93 0.92 0.88 0.84 0.82 0.82 0.84 0.83 0.82 0.81 0.80 0.78 0.76 0.73 0.71 0.69 0.68 0.68 0.68 0.66 0.63 0.67 0.64 0.63 0.67 0.75 0.76 0.77 0.78 0.78 0.78 0.78 0.77 0.75 0.73 0.72 0.71 0.69 0.68 0.69 0.69 0.70 0.72 0.67 0.63 0.60 0.59 0.58 0.58 0.58 0.58 0.58 0.59 0.57 0.54 0.50 0.50 0.49 0.50 0.50 0.50 0.48 0.47
0.99 0.96 0.91 0.88 0.91 0.89 0.84 0.86 0.94 0.95 0.95 0.95 0.93 0.90 0.89 0.84 0.81 0.80 0.79 0.83 0.88 0.93 0.95 0.93 0.92 0.91 0.89 0.86 0.82 0.80 0.80 0.79 0.77 0.76 0.75 0.72 0.70 0.69 0.67 0.67 0.67 0.69 0.75 0.75 0.74 0.73 0.76 0.76 0.77 0.76 0.76 0.76 0.77 0.76 0.75 0.74 0.73 0.70 0.69 0.69 0.69 0.69 0.68 0.69 0.67 0.62 0.60 0.60 0.59 0.59 0.60 0.61 0.61 0.58 0.55 0.55 0.54 0.52 0.50 0.50 0.50 0.47 0.46 0.45 0.43
1.01 1.01 0.97 0.93 0.97 0.97 0.95 0.92 0.90 0.90 0.92 0.91 0.91 0.88 0.87 0.90 0.87 0.84 0.83 0.80 0.77 0.76 0.78 0.82 0.87 0.86 0.85 0.84 0.82 0.81 0.79 0.77 0.76 0.76 0.74 0.72 0.70 0.68 0.66 0.62 0.61 0.70 0.77 0.78 0.79 0.79 0.80 0.81 0.76 0.75 0.75 0.73 0.73 0.73 0.72 0.71 0.70 0.69 0.67 0.67 0.67 0.66 0.65 0.64 0.62 0.60 0.60 0.61 0.60 0.61 0.60 0.59 0.57 0.57 0.55 0.53 0.52 0.49 0.48 0.48 0.47 0.47 0.45 0.44 0.44
0.93 0.95 0.95 0.96 0.98 0.99 1.02 1.02 0.98 0.91 0.89 0.89 0.89 0.86 0.86 0.85 0.85 0.89 0.90 0.88 0.85 0.83 0.83 0.86 0.88 0.90 0.89 0.87 0.86 0.83 0.79 0.77 0.76 0.76 0.76 0.74 0.72 0.70 0.61 0.59 0.65 0.70 0.74 0.77 0.80 0.85 0.87 0.81 0.79 0.77 0.77 0.76 0.75 0.73 0.72 0.71 0.70 0.69 0.68 0.67 0.64 0.62 0.62 0.61 0.60 0.59 0.59 0.59 0.60 0.60 0.57 0.56 0.55 0.55 0.55 0.54 0.51 0.49 0.48 0.47 0.46 0.46 0.46 0.45 0.45
0.87 0.87 0.92 0.95 1.01 1.03 1.02 1.02 1.00 0.98 0.95 0.92 0.91 0.89 0.90 0.89 0.87 0.86 0.87 0.88 0.90 0.91 0.88 0.89 0.89 0.89 0.90 0.89 0.89 0.87 0.84 0.83 0.82 0.81 0.81 0.81 0.81 0.79 0.74 0.73 0.72 0.74 0.76 0.78 0.79 0.80 0.78 0.79 0.79 0.77 0.77 0.75 0.74 0.73 0.72 0.70 0.70 0.68 0.68 0.67 0.65 0.63 0.62 0.61 0.61 0.60 0.58 0.58 0.57 0.55 0.54 0.53 0.53 0.53 0.52 0.49 0.48 0.48 0.48 0.47 0.46 0.46 0.46 0.45 0.44
0.85 0.81 0.81 0.89 0.94 0.96 0.97 0.96 0.95 0.93 0.90 0.89 0.89 0.90 0.90 0.90 0.89 0.89 0.88 0.86 0.88 0.89 0.90 0.93 0.90 0.86 0.83 0.86 0.91 0.88 0.86 0.86 0.85 0.83 0.82 0.81 0.79 0.78 0.78 0.79 0.80 0.81 0.78 0.77 0.78 0.77 0.76 0.77 0.77 0.76 0.76 0.75 0.73 0.72 0.70 0.69 0.69 0.67 0.66 0.64 0.63 0.63 0.63 0.62 0.61 0.60 0.60 0.58 0.55 0.54 0.53 0.52 0.52 0.52 0.51 0.49 0.47 0.46 0.46 0.46 0.45 0.43 0.43 0.42 0.41
0.84 0.83 0.82 0.83 0.84 0.84 0.87 0.91 0.93 0.90 0.91 0.88 0.86 0.83 0.85 0.85 0.85 0.85 0.86 0.84 0.82 0.82 0.89 0.92 0.92 0.91 0.90 0.94 0.92 0.93 0.89 0.84 0.82 0.76 0.76 0.76 0.76 0.77 0.77 0.77 0.79 0.78 0.77 0.77 0.78 0.78 0.77 0.76 0.77 0.76 0.75 0.75 0.73 0.71 0.69 0.68 0.67 0.66 0.65 0.63 0.62 0.61 0.60 0.59 0.58 0.59 0.58 0.56 0.55 0.55 0.53 0.52 0.52 0.52 0.51 0.49 0.47 0.46 0.45 0.43 0.42 0.40 0.38 0.37 0.38
0.87 0.86 0.86 0.84 0.83 0.83 0.82 0.83 0.88 0.91 0.93 0.91 0.90 0.90 0.89 0.88 0.87 0.85 0.85 0.86 0.86 0.89 0.86 0.87 0.89 0.92 0.97 0.98 0.95 0.93 0.87 0.83 0.81 0.80 0.78 0.77 0.76 0.76 0.76 0.75 0.74 0.73 0.73 0.74 0.75 0.75 0.75 0.75 0.75 0.74 0.73 0.73 0.72 0.70 0.69 0.67 0.66 0.65 0.64 0.62 0.60 0.59 0.58 0.58 0.57 0.56 0.55 0.55 0.54 0.53 0.53 0.52 0.52 0.51 0.50 0.49 0.47 0.45 0.43 0.40 0.39 0.38 0.38 0.39 0.39
0.88 0.88 0.87 0.85 0.82 0.79 0.79 0.81 0.82 0.84 0.87 0.91 0.91 0.90 0.89 0.88 0.89 0.89 0.87 0.85 0.85 0.87 0.87 0.88 0.89 0.91 0.92 0.91 0.90 0.87 0.83 0.79 0.78 0.78 0.77 0.76 0.75 0.74 0.75 0.77 0.75 0.75 0.75 0.74 0.75 0.75 0.74 0.73 0.73 0.73 0.72 0.72 0.71 0.70 0.70 0.68 0.67 0.65 0.63 0.62 0.60 0.59 0.58 0.58 0.57 0.56 0.55 0.54 0.53 0.52 0.52 0.52 0.51 0.48 0.46 0.45 0.45 0.43 0.41 0.40 0.39 0.40 0.41 0.41 0.40
0.91 0.90 0.88 0.86 0.85 0.83 0.81 0.81 0.82 0.85 0.85 0.86 0.87 0.86 0.85 0.84 0.84 0.85 0.83 0.82 0.82 0.83 0.85 0.86 0.88 0.89 0.89 0.87 0.85 0.85 0.82 0.80 0.78 0.76 0.75 0.75 0.74 0.74 0.75 0.75 0.74 0.74 0.72 0.72 0.71 0.70 0.70 0.70 0.69 0.69 0.68 0.68 0.67 0.68 0.68 0.67 0.66 0.64 0.62 0.61 0.59 0.57 0.56 0.56 0.56 0.56 0.56 0.55 0.54 0.53 0.52 0.51 0.49 0.47 0.45 0.44 0.42 0.41 0.41 0.40 0.40 0.40 0.40 0.39 0.39
0.92 0.90 0.89 0.87 0.85 0.83 0.84 0.85 0.86 0.85 0.84 0.85 0.86 0.88 0.87 0.86 0.83 0.83 0.83 0.84 0.84 0.84 0.85 0.84 0.86 0.87 0.86 0.86 0.84 0.83 0.80 0.79 0.77 0.76 0.75 0.75 0.74 0.75 0.75 0.74 0.74 0.75 0.74 0.72 0.72 0.71 0.69 0.67 0.66 0.66 0.65 0.65 0.65 0.65 0.64 0.62 0.62 0.60 0.59 0.58 0.56 0.54 0.53 0.53 0.54 0.54 0.54 0.53 0.52 0.51 0.50 0.49 0.47 0.45 0.43 0.42 0.42 0.41 0.40 0.39 0.39 0.39 0.39 0.39 0.39
0.97 0.95 0.91 0.87 0.85 0.84 0.86 0.86 0.85 0.85 0.86 0.86 0.87 0.88 0.89 0.88 0.88 0.86 0.85 0.85 0.85 0.86 0.86 0.86 0.85 0.86 0.85 0.84 0.83 0.82 0.79 0.78 0.76 0.76 0.76 0.76 0.76 0.75 0.76 0.76 0.75 0.75 0.75 0.74 0.73 0.72 0.71 0.69 0.67 0.67 0.67 0.66 0.66 0.66 0.64 0.63 0.61 0.59 0.57 0.55 0.54 0.53 0.53 0.52 0.52 0.51 0.51 0.49 0.49 0.47 0.46 0.46 0.45 0.43 0.42 0.42 0.41 0.39 0.37 0.36 0.36 0.36 0.37 0.38 0.38
0.95 0.93 0.92 0.91 0.90 0.89 0.87 0.88 0.87 0.87 0.89 0.89 0.89 0.89 0.90 0.89 0.87 0.87 0.86 0.86 0.86 0.86 0.85 0.86 0.86 0.86 0.84 0.83 0.81 0.79 0.78 0.77 0.77 0.76 0.75 0.75 0.74 0.75 0.75 0.75 0.74 0.74 0.73 0.73 0.73 0.72 0.70 0.68 0.67 0.65 0.64 0.64 0.63 0.62 0.62 0.62 0.62 0.61 0.59 0.58 0.55 0.53 0.52 0.52 0.52 0.52 0.50 0.48 0.46 0.45 0.44 0.43 0.42 0.41 0.40 0.40 0.39 0.37 0.36 0.36 0.36 0.37 0.37 0.37 0.37
0.95 0.95 0.95 0.95 0.92 0.92 0.92 0.92 0.93 0.94 0.93 0.91 0.89 0.87 0.86 0.85 0.85 0.84 0.83 0.83 0.84 0.84 0.83 0.83 0.83 0.82 0.81 0.80 0.80 0.79 0.78 0.77 0.76 0.76 0.75 0.75 0.75 0.74 0.74 0.73 0.73 0.72 0.71 0.71 0.71 0.70 0.69 0.68 0.66 0.64 0.62 0.61 0.61 0.60 0.60 0.60 0.60 0.59 0.59 0.58 0.56 0.55 0.55 0.55 0.54 0.52 0.50 0.48 0.47 0.45 0.44 0.43 0.41 0.40 0.40 0.39 0.39 0.38 0.37 0.38 0.38 0.38 0.38 0.37 0.38
0.91 0.91 0.91 0.89 0.87 0.86 0.87 0.90 0.92 0.91 0.91 0.90 0.89 0.88 0.88 0.86 0.85 0.85 0.85 0.85 0.84 0.83 0.82 0.81 0.80 0.79 0.78 0.77 0.76 0.75 0.76 0.75 0.74 0.73 0.73 0.73 0.73 0.73 0.72 0.72 0.71 0.69 0.68 0.68 0.68 0.67 0.66 0.65 0.64 0.63 0.62 0.61 0.61 0.60 0.60 0.60 0.60 0.59 0.59 0.58 0.57 0.56 0.56 0.56 0.54 0.52 0.51 0.50 0.49 0.47 0.45 0.43 0.42 0.40 0.40 0.40 0.39 0.39 0.39 0.39 0.39 0.38 0.39 0.39 0.40
0.84 0.84 0.84 0.84 0.83 0.82 0.82 0.83 0.83 0.87 0.88 0.87 0.87 0.89 0.90 0.88 0.86 0.83 0.83 0.83 0.82 0.81 0.81 0.80 0.78 0.77 0.75 0.73 0.72 0.70 0.69 0.69 0.70 0.70 0.70 0.68 0.67 0.68 0.69 0.68 0.68 0.68 0.68 0.68 0.67 0.67 0.66 0.64 0.63 0.61 0.60 0.59 0.59 0.58 0.59 0.59 0.59 0.58 0.58 0.58 0.57 0.56 0.56 0.55 0.53 0.52 0.51 0.51 0.49 0.48 0.46 0.44 0.42 0.41 0.41 0.40 0.40 0.40 0.39 0.39 0.40 0.40 0.41 0.41 0.41
0.89 0.87 0.86 0.88 0.89 0.89 0.88 0.91 0.90 0.88 0.87 0.85 0.82 0.80 0.81 0.82 0.81 0.81 0.81 0.81 0.79 0.77 0.76 0.75 0.74 0.72 0.70 0.69 0.69 0.68 0.66 0.66 0.65 0.64 0.63 0.65 0.68 0.68 0.67 0.67 0.66 0.66 0.65 0.64 0.64 0.64 0.64 0.63 0.62 0.61 0.60 0.60 0.59 0.59 0.58 0.58 0.58 0.57 0.57 0.57 0.56 0.56 0.55 0.54 0.53 0.52 0.52 0.51 0.50 0.49 0.47 0.45 0.43 0.42 0.42 0.42 0.42 0.42 0.41 0.41 0.41 0.42 0.42 0.42 0.43
0.83 0.83 0.80 0.78 0.76 0.78 0.82 0.88 0.90 0.89 0.89 0.88 0.84 0.82 0.80 0.80 0.76 0.74 0.73 0.71 0.71 0.71 0.72 0.71 0.70 0.68 0.67 0.65 0.65 0.65 0.65 0.63 0.62 0.62 0.64 0.63 0.64 0.64 0.65 0.65 0.65 0.65 0.65 0.64 0.63 0.63 0.61 0.60 0.59 0.59 0.58 0.57 0.57 0.56 0.57 0.58 0.58 0.58 0.57 0.57 0.56 0.56 0.54 0.53 0.53 0.52 0.52 0.51 0.49 0.48 0.47 0.45 0.44 0.43 0.42 0.42 0.42 0.42 0.41 0.42 0.43 0.43 0.43 0.44 0.44
0.75 0.75 0.75 0.76 0.76 0.76 0.75 0.72 0.72 0.77 0.82 0.84 0.84 0.83 0.81 0.78 0.76 0.73 0.70 0.68 0.67 0.66 0.65 0.64 0.62 0.62 0.63 0.63 0.63 0.63 0.63 0.64 0.65 0.63 0.62 0.60 0.60 0.59 0.58 0.57 0.57 0.57 0.58 0.58 0.57 0.56 0.56 0.56 0.57 0.57 0.56 0.56 0.56 0.56 0.57 0.56 0.56 0.56 0.56 0.55 0.54 0.53 0.53 0.52 0.51 0.51 0.50 0.49 0.49 0.47 0.46 0.44 0.42 0.41 0.42 0.42 0.42 0.42 0.42 0.43 0.43 0.44 0.45 0.44 0.43
Wind_Speed
16 16 16 15 14 14 13 13 13 12 11 11 11 10 10 9 9 9 8 8 8 7 7 7 7 7 7 7 6 6 6 5 5 5 5 4 4 4 3 3 3 3 2 3 3 3 3 3 3 4 4 4 4 4 4 4 4 5 5 5 5 5 6 6 6 7 8 8 8 9 9 10 10 10 10 10 10 11 11 11 11 11 11 11 12
16 16 16 16 15 15 14 14 13 13 12 11 11 11 10 10 9 9 9 8 8 8 8 8 7 7 7 7 7 6 6 6 6 5 5 5 5 4 4 3 3 3 3 3 3 3 3 4 4 4 4 4 4 4 4 4 4 4 4 4 5 5 6 6 6 7 8 9 9 9 9 9 9 10 10 10 10 10 10 10 10 10 10 11 12
16 16 16 16 16 15 15 14 14 13 13 12 12 11 11 10 10 9 9 9 9 8 8 8 8 8 7 7 7 7 7 6 6 6 6 5 5 5 5 4 4 4 4 4 4 4 4 4 4 4 4 4 5 5 5 5 5 5 5 5 5 5 6 6 6 7 7 8 9 9 9 10 10 10 10 10 10 10 10 10 10 10 10 11 12
17 17 16 16 16 16 15 15 14 14 14 13 13 12 11 11 11 10 10 10 10 9 9 9 8 8 8 8 8 8 7 7 6 6 6 6 6 6 6 5 5 5 5 4 4 4 4 4 4 4 5 5 5 5 6 5 5 5 5 5 5 5 6 6 6 7 7 8 9 9 10 10 10 10 10 10 10 10 10 10 10 10 10 11 12
18 17 17 17 16 16 16 15 15 15 14 14 13 13 12 12 12 11 11 11 10 10 10 10 9 9 9 9 9 9 8 8 8 7 7 7 7 7 7 7 6 6 6 6 5 5 5 5 5 5 5 5 6 6 6 6 5 5 5 6 6 6 6 6 7 7 8 8 9 9 10 10 10 10 10 10 11 11 11 11 10 9 10 11 13
18 18 17 17 17 17 16 16 16 15 15 14 14 14 13 13 13 12 12 12 11 11 11 11 11 11 10 10 10 10 10 9 9 9 8 8 8 8 7 7 7 7 7 7 6 6 6 6 6 6 6 6 6 6 6 6 6 7 6 7 7 7 7 8 8 8 8 9 9 10 10 10 10 11 10 10 11 11 11 11 10 10 11 12 14
19 18 18 17 18 17 17 16 16 16 15 15 15 15 14 14 14 13 13 13 12 12 12 12 11 12 11 11 11 11 10 10 10 10 10 9 9 9 9 9 8 8 8 8 7 7 7 7 7 8 8 8 8 8 7 7 7 7 7 7 7 8 8 8 8 9 10 10 10 11 11 10 11 11 10 11 11 11 11 11 11 11 12 14 15
19 19 19 18 18 18 17 17 16 16 16 15 15 15 15 15 15 14 14 14 14 13 13 13 12 12 12 12 12 12 11 11 11 11 11 11 11 11 10 10 10 10 9 9 9 9 9 9 9 9 10 10 10 9 9 8 8 8 8 8 9 9 9 9 10 11 11 12 12 12 12 12 12 12 11 11 11 11 11 11 12 13 14 15 16
20 20 19 19 18 18 18 18 17 17 16 16 16 16 16 16 16 16 16 15 15 14 14 14 13 13 13 13 13 12 12 12 12 12 12 12 12 12 12 11 11 11 11 11 11 10 11 10 10 10 10 11 10 10 10 11 10 10 10 10 10 10 11 11 12 12 12 12 12 13 13 13 13 13 12 12 12 12 12 13 14 14 15 15 16
20 20 20 19 19 19 18 18 18 18 17 16 17 17 16 15 15 16 17 17 16 15 15 15 14 14 14 14 14 13 13 13 13 13 13 13 13 13 13 12 12 12 12 12 12 11 12 12 12 12 12 11 11 11 12 12 12 12 11 11 11 11 12 12 12 12 13 13 13 13 13 13 13 13 13 13 13 14 14 15 15 15 16 16 16
19 21 21 20 20 20 19 19 19 18 17 17 17 17 17 16 15 15 16 17 16 16 16 16 16 16 15 15 15 15 14 14 14 14 14 14 14 14 14 14 13 13 13 13 13 13 13 13 13 13 13 12 12 12 12 12 12 12 12 12 12 13 13 13 13 13 14 14 14 14 14 14 14 13 13 13 14 14 15 15 16 16 17 17 17
20 21 21 21 20 20 20 19 19 19 18 17 17 17 17 17 16 15 15 15 15 15 16 16 16 16 16 16 16 16 16 15 15 15 15 15 15 15 15 15 14 14 14 14 14 13 13 13 14 14 13 13 13 13 13 12 13 13 14 14 14 14 14 14 14 14 14 14 14 14 14 14 14 14 14 14 15 15 16 16 17 17 18 18 18
22 22 22 22 21 21 20 20 20 20 19 19 19 18 18 18 18 17 16 16 16 16 16 16 16 16 16 16 16 16 16 17 17 16 16 17 17 17 17 16 16 16 16 16 16 15 15 15 15 15 14 14 14 14 14 15 15 15 15 15 15 15 15 16 15 15 15 15 15 15 15 15 16 16 16 16 16 17 17 17 18 18 19 19 19
24 24 23 23 22 21 21 21 21 21 21 21 21 20 20 20 19 19 19 18 18 17 18 18 18 18 18 18 17 17 17 17 17 17 17 17 18 18 18 18 18 18 18 18 17 17 17 17 17 16 16 16 16 16 16 17 17 16 16 16 16 16 16 16 16 16 16 16 16 17 17 17 17 17 17 17 18 18 18 19 19 19 20 20 20
25 25 24 23 23 22 22 22 22 22 22 22 22 22 22 22 21 21 20 20 20 20 20 20 20 20 20 19 19 19 19 19 18 18 18 18 18 19 19 19 19 19 19 19 19 19 19 19 18 18 18 18 18 18 18 18 18 18 17 17 17 17 17 16 17 17 17 18 18 18 18 18 18 19 18 18 19 19 19 20 20 20 20 20 20
25 25 24 23 23 23 23 23 23 22 22 22 22 22 22 22 22 21 21 21 21 21 21 21 21 21 21 21 21 21 21 21 20 20 20 20 20 20 20 20 20 20 20 20 20 20 20 20 19 19 19 19 19 19 19 19 19 18 18 18 18 18 18 18 18 18 19 19 19 20 20 20 20 20 20 20 20 20 20 20 20 20 20 20 19
21 21 22 22 23 23 24 24 24 24 23 23 23 23 23 22 22 21 21 22 22 22 23 23 23 23 22 22 22 22 22 22 22 21 21 21 21 21 21 21 21 21 21 21 21 21 20 20 20 20 20 20 20 20 20 20 20 20 20 20 20 20 20 20 20 20 21 21 22 22 22 22 22 21 21 21 21 21 21 20 20 20 19 19 18
19 18 19 20 21 23 24 25 24 24 24 24 24 23 23 23 22 22 22 23 23 23 24 24 24 24 24 24 24 23 23 23 23 23 23 23 23 23 23 22 22 23 23 22 22 22 21 20 20 21 21 20 20 21 21 21 21 21 21 21 21 21 21 21 22 22 22 22 23 23 23 22 22 22 21 21 21 20 20 20 19 19 18 18 18
17 17 17 18 19 21 23 24 24 24 24 24 24 24 24 24 24 24 24 24 24 25 25 25 25 25 25 25 25 25 25 25 24 24 24 24 24 24 24 24 24 24 24 23 23 23 23 22 21 21 21 21 21 21 21 22 22 22 22 22 22 21 21 22 22 22 22 22 22 22 22 22 22 21 21 20 20 19 19 19 18 18 18 18 18
17 17 17 17 18 19 21 22 22 23 24 24 24 24 25 25 25 24 24 24 24 25 25 25 25 25 25 25 25 25 25 25 24 24 23 23 23 23 23 22 22 22 22 22 22 22 23 22 22 21 21 21 21 21 21 21 22 22 22 21 21 21 21 21 21 20 20 20 20 20 20 19 19 19 19 19 19 19 19 18 18 18 18 18 18
15 16 15 15 15 15 15 17 18 20 21 21 22 23 24 24 24 24 24 24 24 24 23 23 23 23 23 23 23 23 23 22 22 21 20 20 19 19 19 19 19 20 19 19 20 20 20 20 20 20 19 20 20 20 21 20 20 20 20 20 20 19 19 18 18 17 17 17 17 17 17 17 17 17 17 18 18 18 19 18 18 18 18 18 18
13 14 13 13 13 12 12 13 14 15 16 17 18 19 19 20 22 22 22 22 21 21 21 20 20 20 20 20 19 19 19 18 18 18 17 17 17 17 17 16 16 16 16 17 17 16 17 17 18 17 18 18 18 18 18 18 17 18 18 18 18 18 17 16 16 16 16 16 16 16 16 16 16 16 17 17 18 18 18 18 18 18 18 17 18
14 14 13 13 13 12 12 12 12 12 12 13 14 15 16 16 17 18 19 20 20 20 19 18 17 17 17 17 16 15 15 15 15 15 15 15 15 15 15 15 14 14 13 13 14 14 15 16 16 16 16 16 16 16 15 15 15 16 16 16 16 16 16 16 16 16 16 16 16 17 17 17 17 18 18 18 18 19 19 19 19 19 19 19 19
15 15 15 15 14 14 13 12 13 13 12 12 12 13 13 13 13 14 15 17 17 17 17 17 17 16 16 15 15 14 14 14 14 14 14 14 14 14 14 14 14 13 12 12 13 14 14 15 15 15 16 16 16 16 16 15 16 16 16 16 16 16 16 16 16 16 16 17 18 18 19 19 19 20 20 20 20 20 20 20 21 21 21 21 22
16 16 16 17 17 16 15 14 14 14 14 14 13 12 12 12 12 12 13 13 14 14 14 15 16 16 16 15 15 15 15 15 15 15 15 15 14 14 14 14 14 14 14 14 14 15 15 15 15 16 16 16 16 16 17 17 17 17 17 17 17 17 17 17 17 17 18 19 19 20 20 20 20 21 21 21 21 21 21 22 22 23 23 23 23
17 16 15 16 17 17 17 17 16 16 16 16 16 15 15 14 13 13 13 14 14 14 13 13 14 14 15 15 15 15 15 16 16 16 16 15 15 15 15 15 15 15 15 15 16 16 17 17 17 18 18 18 18 18 18 19 19 19 19 19 19 19 19 18 18 19 20 21 21 21 21 21 21 21 21 21 21 21 22 23 23 23 23 23 23
17 17 16 16 16 17 17 17 18 17 17 17 17 16 16 16 15 15 15 15 15 15 14 14 14 14 15 15 15 15 15 16 16 17 17 17 17 16 16 16 16 16 17 17 18 18 19 19 20 20 20 20 20 20 20 20 20 19 19 19 19 19 19 18 19 20 21 22 22 22 22 22 22 22 21 21 21 22 22 22 22 23 23 23 23
16 17 17 17 17 17 17 17 17 18 18 17 17 17 17 17 17 16 16 16 16 16 16 16 15 15 16 16 16 16 16 17 17 18 19 19 19 19 18 18 18 18 19 20 20 20 20 21 21 21 20 20 21 20 20 19 19 19 19 19 19 19 19 19 20 21 22 23 23 23 24 24 23 22 22 22 22 23 23 22 23 23 23 23 23
17 18 18 18 18 18 17 17 17 17 17 17 18 18 17 17 17 17 17 17 16 16 17 17 17 17 17 17 17 18 18 19 19 20 20 20 20 20 20 20 20 20 21 21 22 22 21 21 21 21 21 21 21 21 20 20 20 20 20 20 21 21 21 22 22 23 24 24 24 24 25 25 24 24 24 24 24 24 23 23 23 23 24 24 24
18 19 19 19 19 18 18 18 18 18 17 17 18 18 17 17 17 17 18 18 18 18 18 18 18 19 19 19 19 19 19 20 20 21 21 21 21 21 21 22 22 22 22 23 23 23 23 23 22 22 22 22 22 22 22 22 22 22 22 22 22 23 23 23 24 24 25 25 25 26 26 26 25 25 25 25 25 24 24 24 24 24 24 24 25
18 19 20 20 20 19 19 19 19 19 19 19 19 19 19 19 19 19 20 20 21 21 20 20 21 21 21 21 21 21 21 21 22 23 23 23 23 23 23 23 23 23 23 24 24 24 24 24 24 23 23 23 23 23 24 24 24 24 24 24 24 25 25 25 25 26 26 27 27 27 27 27 26 26 26 26 26 26 26 26 26 25 26 26 27
19 19 20 20 21 21 20 20 20 20 20 20 20 20 20 21 21 21 22 22 22 22 22 23 23 24 24 24 24 24 24 25 25 25 26 26 26 26 26 26 25 25 25 25 25 25 24 24 24 24 24 24 24 24 25 25 25 25 26 26 26 26 27 27 27 27 28 28 29 28 28 27 27 27 27 27 27 27 27 27 27 28 28 28 28
20 20 20 20 21 21 21 21 21 20 20 20 21 21 21 21 22 22 22 22 22 22 22 22 23 24 24 25 26 26 26 27 27 27 28 28 28 28 28 28 27 27 26 26 26 26 25 25 26 26 25 25 25 25 26 26 26 26 27 27 27 28 28 28 29 29 29 29 29 28 28 28 28 28 28 28 28 28 29 29 29 29 29 30 30
21 21 21 21 21 21 22 22 22 22 22 22 22 22 22 22 23 23 23 23 23 23 23 23 23 23 24 24 25 25 26 26 27 27 27 27 28 28 28 28 28 27 26 26 27 27 27 27 27 27 26 26 27 27 27 27 28 28 28 28 29 29 30 30 30 30 30 29 29 29 29 29 29 28 29 29 29 30 30 30 30 30 31 31 32
22 22 22 22 22 22 22 22 23 24 24 23 23 23 23 24 24 24 25 25 26 25 25 25 25 25 25 25 25 25 25 26 26 26 26 26 27 27 28 28 28 27 27 28 28 28 28 28 28 27 27 28 28 28 28 28 29 29 29 30 30 30 30 30 30 30 30 29 29 29 29 29 29 29 30 30 30 31 31 31 32 32 33 34 34
24 24 24 24 24 24 24 24 24 25 25 25 25 25 25 25 25 26 26 26 27 27 27 27 27 26 26 26 26 26 26 26 26 26 26 26 27 27 27 27 28 28 29 29 29 29 29 29 29 29 29 29 29 29 29 29 30 30 30 30 31 31 31 30 30 30 30 30 30 30 30 30 30 31 31 31 32 32 33 34 34 35 35 36 36
26 26 26 26 26 26 26 26 26 27 27 27 27 27 27 27 27 27 27 27 27 28 28 28 28 28 28 28 28 28 27 27 27 27 27 28 28 28 28 28 29 30 30 30 30 29 29 29 29 30 30 30 31 31 31 31 31 31 31 31 31 31 31 31 31 31 31 31 31 31 31 31 32 32 33 33 34 35 35 36 36 36 37 37 38
28 28 28 28 28 28 27 27 27 28 28 28 29 29 29 29 29 28 28 28 28 29 29 29 30 30 30 30 30 30 29 29 29 29 29 29 29 29 29 30 31 32 31 31 31 30 30 31 31 31 31 32 32 32 32 32 32 32 32 32 32 32 32 32 32 32 32 32 32 32 33 33 34 34 34 35 35 36 37 37 38 38 39 39 39
29 29 28 28 28 28 28 28 29 29 29 29 29 29 29 29 29 29 29 29 29 29 30 31 31 31 31 31 31 31 31 31 31 31 31 31 31 31 31 31 31 32 32 32 32 32 31 31 32 32 32 32 33 33 33 33 33 33 33 33 33 33 33 33 33 33 33 33 33 34 34 35 35 35 36 36 37 38 38 39 39 40 40 40 40
29 29 29 29 29 28 29 29 30 30 30 30 30 30 30 29 29 29 29 29 29 30 30 31 31 31 31 31 31 32 32 32 32 33 33 33 33 33 33 33 33 32 32 33 33 33 33 33 33 33 33 33 33 34 34 34 34 34 34 34 34 34 34 34 34 34 34 34 35 35 36 36 36 37 37 38 38 39 39 40 40 40 40 40 40
31 30 30 30 30 30 30 30 31 31 31 31 31 31 31 31 31 31 31 31 31 31 31 31 31 32 32 32 32 32 33 33 33 34 34 34 34 34 35 35 35 34 34 34 34 34 34 34 34 34 34 34 34 34 34 35 35 35 35 35 35 35 35 35 35 35 35 36 36 36 37 37 38 38 38 39 40 40 40 40 40 41 41 41 41
33 33 32 32 32 32 32 32 32 32 32 31 31 31 31 31 31 31 32 32 32 32 32 32 32 32 33 33 33 33 34 34 34 34 35 35 35 34 34 35 35 35 35 35 35 35 35 35 35 35 35 35 35 35 35 36 36 36 36 36 36 36 36 36 37 37 37 37 38 38 38 39 39 40 40 41 41 41 41 41 41 41 41 41 41
34 34 34 34 34 34 34 34 34 34 34 33 32 32 31 31 31 31 31 31 32 32 32 33 33 33 34 34 34 34 34 34 34 34 34 34 34 33 34 34 35 35 35 35 35 35 35 35 36 36 36 36 36 36 36 37 37 37 37 37 37 37 37 37 38 38 39 39 39 39 40 40 40 41 41 41 41 41 41 41 41 41 41 41 42
35 35 35 36 36 36 35 35 35 35 35 34 33 33 32 32 32 32 32 32 32 32 32 33 33 33 34 34 34 34 34 34 34 34 34 34 34 35 35 35 36 36 36 36 36 36 36 36 36 37 37 37 38 38 38 37 38 37 37 37 37 37 37 37 38 38 38 39 39 40 40 40 41 41 41 41 41 41 41 41 41 41 41 41 41
35 36 36 36 36 36 37 37 37 36 34 34 34 34 34 34 34 34 34 34 34 34 33 33 33 33 33 33 33 33 33 33 34 34 35 35 36 36 37 37 37 37 37 37 37 36 36 36 37 37 37 38 38 38 38 38 38 37 37 37 38 38 38 38 38 38 38 39 39 40 40 40 40 40 40 40 41 41 41 41 41 41 41 41 41
36 36 35 35 36 36 36 36 36 35 34 34 34 35 35 35 36 36 36 36 35 35 35 35 34 34 34 34 34 34 34 34 34 35 35 35 36 36 37 37 37 37 37 37 37 37 37 37 37 38 38 38 38 38 38 38 38 37 38 38 38 38 39 38 38 39 39 40 40 41 41 41 41 41 41 41 41 41 41 41 42 41 41 41 41
36 35 35 36 36 35 34 34 34 34 34 34 34 34 34 34 35 35 35 35 35 35 36 36 36 36 36 36 36 36 36 36 36 35 36 36 36 36 36 37 37 37 37 37 37 37 38 38 38 39 39 39 38 38 38 38 38 38 38 38 38 39 39 39 39 40 41 41 41 41 41 41 41 41 41 41 41 41 42 42 42 41 41 42 42
34 34 35 35 35 34 33 33 33 34 34 34 34 33 33 33 33 33 33 34 35 35 36 36 36 36 37 37 37 37 37 37 37 37 37 37 36 36 36 36 36 36 37 37 37 38 39 39 39 39 39 39 39 39 39 39 39 39 39 39 39 39 39 40 40 41 41 42 42 42 42 42 42 42 42 42 42 42 42 42 41 41 41 42 42
33 34 34 35 35 34 34 34 34 34 35 35 35 35 34 34 34 34 34 34 34 34 35 35 35 36 36 36 36 36 36 36 37 37 37 36 36 35 35 36 36 36 37 37 38 38 39 39 39 39 39 39 39 40 40 40 39 39 39 39 39 40 40 40 41 41 42 42 42 42 42 42 42 41 41 41 41 41 41 41 41 41 41 42 42
33 33 34 34 34 35 35 35 34 34 34 34 34 34 35 35 36 36 36 35 35 35 35 35 35 35 35 35 35 35 36 36 36 36 35 36 36 36 37 37 37 38 38 38 38 39 39 40 39 39 39 40 40 40 40 39 39 39 39 40 40 40 41 41 41 42 42 42 42 42 42 41 41 41 40 40 40 40 40 40 40 41 41 42 42
33 34 34 34 35 35 35 35 35 35 35 35 34 35 35 35 34 34 34 35 35 36 36 36 36 36 36 36 36 36 36 35 35 35 36 36 37 37 38 38 39 39 39 39 39 40 40 40 40 39 40 40 40 40 40 39 39 40 40 40 41 41 41 41 41 41 41 41 41 41 41 40 40 39 39 39 39 39 39 39 40 40 41 42 42
Wind_Direction
200 201 202 201 200 200 200 199 198 198 198 196 198 200 199 199 199 198 199 200 200 201 200 199 198 198 198 199 199 200 199 200 202 202 205 212 215 218 224 227 229 236 246 255 264 272 277 280 281 284 285 284 289 289 285 297 309 309 308 312 317 320 322 322 319 320 325 327 328 329 329 330 332 335 337 338 339 338 338 338 341 342 345 347 348
203 203 204 205 204 203 203 202 202 202 202 201 201 202 202 201 201 201 202 202 202 202 204 205 203 202 202 203 204 204 205 206 209 211 214 218 222 227 232 231 234 243 250 257 262 268 276 281 283 288 290 287 291 294 291 297 306 309 310 312 315 319 322 322 320 321 325 329 332 332 333 336 337 338 340 338 336 335 335 339 342 344 345 346 346
206 205 206 207 207 207 207 206 206 206 206 206 206 205 205 204 205 206 206 207 208 207 209 209 209 209 210 209 209 210 212 213 215 218 220 223 227 232 234 234 238 244 252 257 259 264 271 278 283 288 290 291 292 293 294 296 299 303 308 311 313 316 320 322 320 320 323 328 332 333 335 337 337 336 337 335 333 332 333 336 338 338 339 340 341
208 209 208 208 208 210 211 209 209 210 210 210 210 209 210 211 211 211 211 212 212 213 214 213 214 217 216 215 216 219 221 221 222 224 225 227 231 235 237 239 242 245 251 257 259 264 271 276 283 288 290 289 286 287 292 295 295 299 302 304 308 311 316 320 319 319 322 326 328 329 331 333 333 334 334 333 333 335 336 337 336 334 335 338 340
209 211 210 209 210 212 213 212 214 214 214 214 214 214 215 216 216 217 218 217 217 217 218 217 219 222 222 220 222 224 227 229 230 231 232 234 236 238 241 243 246 249 255 260 261 264 269 273 277 280 283 285 285 286 289 289 291 296 298 299 303 304 307 312 313 316 319 320 321 325 328 330 332 333 333 335 338 339 338 338 339 338 338 338 337
211 212 212 212 212 214 215 214 216 217 217 218 218 218 219 220 221 221 221 222 223 222 222 221 222 224 226 227 227 229 231 233 235 237 239 240 242 245 246 246 248 250 255 261 263 264 268 272 275 276 278 281 282 282 283 284 286 289 292 296 300 301 302 306 309 312 314 315 317 321 326 330 331 332 333 336 336 336 336 338 341 341 338 336 334
212 213 214 215 215 215 216 217 217 219 220 221 221 223 223 223 225 226 225 226 227 227 227 227 226 227 229 231 233 234 235 237 239 241 242 242 245 248 250 251 251 253 256 260 263 265 267 270 273 275 276 277 276 275 275 277 280 283 286 291 296 298 299 300 303 307 310 313 315 318 323 326 327 328 330 332 332 332 335 338 337 334 332 331 331
213 214 216 218 217 217 218 219 219 219 221 223 224 225 226 226 228 230 229 229 229 229 230 231 231 232 234 235 237 238 239 241 243 245 246 245 245 248 251 253 254 255 257 259 262 264 265 268 271 273 275 275 273 272 272 272 274 279 283 287 291 293 294 295 299 303 306 308 310 313 317 319 321 323 324 327 329 329 330 331 329 327 327 327 328
215 216 218 220 221 220 220 220 221 221 223 225 226 228 229 230 231 232 232 232 232 232 233 233 235 236 237 238 240 241 242 243 246 247 249 249 248 249 251 253 255 258 259 260 262 263 264 268 272 275 279 279 274 271 270 269 271 277 281 284 286 289 292 294 297 299 301 302 305 308 310 312 314 316 318 322 323 322 322 322 323 324 325 325 326
217 218 220 222 224 224 224 223 223 223 225 226 227 229 232 234 234 233 233 233 234 235 235 236 238 239 239 240 242 244 245 247 250 251 251 251 251 252 252 253 255 258 260 262 263 264 266 269 271 275 280 281 277 274 272 269 269 274 278 282 285 288 292 294 296 297 298 299 300 303 305 306 307 310 312 315 316 316 317 319 321 322 324 324 324
221 221 221 223 225 226 226 226 225 225 227 228 228 229 232 235 236 236 235 234 235 237 238 240 241 242 243 244 245 245 247 250 253 253 253 252 253 254 254 254 255 257 260 262 264 266 268 270 271 274 277 278 278 281 281 277 274 275 277 281 284 287 289 292 294 295 296 297 298 299 299 300 302 305 307 309 310 311 314 316 318 320 322 322 322
223 224 223 223 225 225 226 227 227 227 228 229 229 230 233 235 236 236 236 236 236 237 239 241 242 243 244 245 245 246 248 252 254 255 255 255 255 256 256 255 256 257 260 262 265 268 270 271 272 273 274 275 276 279 281 281 280 278 278 279 282 284 287 290 292 293 294 294 296 297 297 298 299 301 303 304 306 308 310 312 314 316 317 317 317
221 223 224 224 225 226 226 227 228 228 229 229 231 232 234 236 238 238 239 239 238 238 239 241 244 245 245 245 246 247 249 252 253 254 255 256 257 256 255 255 256 258 262 264 266 268 269 269 270 270 271 273 274 275 277 279 280 280 279 279 280 281 285 287 289 290 291 292 294 295 296 297 297 298 300 301 303 304 306 307 309 311 312 313 313
224 225 224 224 225 226 227 228 229 230 230 231 233 233 234 236 237 238 239 240 241 241 243 243 245 247 247 247 248 249 250 252 253 253 254 256 257 256 255 255 256 259 262 264 266 268 268 267 268 268 270 272 273 274 276 277 278 280 280 280 279 280 282 284 286 287 289 290 292 293 294 294 295 296 297 298 300 301 303 304 306 307 308 309 310
228 226 224 225 227 229 230 231 231 232 232 233 234 235 236 236 237 238 239 241 243 244 246 247 247 248 248 247 248 250 251 253 254 255 256 257 258 257 256 256 257 260 262 264 265 267 267 266 267 268 269 271 272 274 274 275 277 278 280 281 280 281 282 282 283 285 287 288 289 291 292 292 292 293 294 296 297 299 300 301 303 305 306 307 309
229 227 227 229 230 232 233 234 234 234 233 233 235 236 237 237 238 239 240 242 244 245 248 249 249 250 249 249 249 250 252 254 254 256 257 259 259 258 257 258 258 260 262 263 265 266 266 266 266 267 268 270 272 274 274 275 276 277 280 281 280 280 280 281 283 285 286 287 288 289 291 291 291 291 291 293 295 296 298 299 301 303 305 307 308
234 233 234 235 235 236 238 237 237 237 236 236 237 238 239 238 239 241 242 244 245 246 248 250 251 251 250 250 251 251 252 254 255 256 258 259 259 258 258 259 259 260 261 263 264 265 265 266 266 267 268 269 271 273 275 275 276 277 279 280 280 279 279 280 283 285 286 287 288 289 290 290 290 290 290 291 293 295 297 299 301 302 303 305 307
239 239 240 241 241 242 242 240 239 239 239 238 238 239 240 240 242 244 246 247 247 248 250 251 252 252 252 251 251 251 252 254 256 257 258 259 259 259 259 260 261 262 262 262 263 263 264 266 266 267 268 269 271 273 275 276 275 276 277 278 279 279 279 281 283 285 286 287 287 288 289 289 290 289 290 291 293 294 297 299 300 301 302 303 305
239 241 243 244 246 247 247 244 243 242 243 242 241 241 243 243 244 246 247 249 249 249 251 252 253 253 253 252 252 252 253 254 255 257 258 259 259 259 259 261 262 263 262 262 262 261 262 264 266 267 268 269 271 274 275 276 275 275 276 277 278 279 280 282 284 285 286 287 288 288 289 289 289 289 289 291 293 295 297 298 299 299 300 301 302
241 242 244 246 249 251 250 246 244 244 245 246 246 246 246 246 245 245 247 248 249 250 251 252 252 253 254 253 253 253 253 253 254 256 257 259 259 258 258 260 262 262 262 263 262 259 259 260 263 265 267 270 272 274 275 276 275 275 275 276 277 279 281 283 285 286 286 288 289 289 289 289 290 290 290 290 292 294 297 298 298 297 298 298 299
243 244 245 246 249 250 248 244 243 244 247 249 249 249 249 247 245 245 247 248 249 250 251 252 252 252 252 252 251 251 251 251 253 254 255 256 257 256 257 260 261 261 262 264 263 259 257 258 261 264 267 271 273 274 275 276 275 275 275 276 277 278 279 281 283 285 286 288 290 292 292 292 291 291 290 290 291 294 296 297 298 297 297 297 298
245 245 244 243 243 244 245 244 244 246 249 251 250 248 248 247 244 243 244 245 246 248 249 250 250 249 248 248 247 247 247 247 249 250 251 253 254 253 254 257 260 261 262 262 261 258 257 258 260 264 268 272 274 275 276 277 276 274 274 275 276 276 277 278 281 283 284 286 290 292 293 293 293 292 292 292 293 294 296 297 297 297 297 296 297
247 246 244 245 244 244 244 246 246 248 250 251 249 248 248 247 245 243 242 243 244 245 246 246 244 241 240 240 240 242 242 241 242 243 245 247 250 251 252 255 259 262 261 259 258 258 259 260 261 264 268 271 273 274 275 276 276 275 275 275 276 276 277 277 279 282 283 286 289 292 294 294 294 293 294 293 294 295 295 296 296 296 296 296 297
249 248 246 246 248 247 247 247 248 248 250 252 251 248 246 245 245 244 243 240 239 239 238 236 234 232 232 233 235 238 238 238 239 240 241 243 247 250 252 255 258 260 259 258 259 260 261 262 262 264 267 269 271 272 273 275 276 276 276 276 276 276 275 276 278 282 285 287 290 293 294 293 293 292 292 292 292 293 293 293 294 295 296 296 296
249 249 248 248 248 248 247 247 247 247 248 251 250 245 242 243 247 249 243 234 230 231 232 230 229 229 231 233 235 237 238 238 239 240 242 244 247 251 254 256 259 260 259 258 259 260 262 264 265 266 267 269 271 273 274 275 276 276 276 276 275 275 274 275 278 281 284 287 289 291 292 291 291 291 290 290 290 291 291 291 292 294 295 295 295
248 248 248 247 245 244 245 247 248 248 248 250 250 249 249 250 250 248 242 235 232 234 234 231 231 232 233 233 234 236 239 241 241 242 244 247 250 253 256 259 261 261 261 261 262 263 265 266 267 268 269 271 273 274 275 276 276 277 278 277 276 276 275 276 279 281 284 286 289 291 292 291 290 290 290 289 289 290 291 292 292 293 294 294 294
245 244 244 243 243 244 247 249 249 249 250 249 247 248 250 250 247 243 241 239 237 236 234 232 234 235 233 231 233 237 241 246 248 248 249 252 255 257 259 261 263 263 263 265 266 266 266 267 268 269 270 271 272 273 275 275 274 276 279 279 277 277 277 278 280 282 284 286 288 289 291 291 291 291 290 290 289 290 291 292 292 292 293 293 293
245 245 245 244 244 246 250 251 250 250 250 247 244 245 247 247 245 243 242 241 240 237 236 235 235 235 233 231 234 238 243 247 250 252 253 255 258 260 262 263 264 265 266 268 268 268 268 268 268 268 269 270 271 274 276 275 273 275 279 279 278 278 279 280 281 283 284 285 286 288 289 290 290 290 290 290 290 291 291 291 291 291 291 292 292
248 248 247 246 246 248 251 251 249 249 247 244 243 245 246 246 244 242 242 243 243 241 239 239 238 237 237 237 239 242 245 247 250 252 254 255 257 259 261 263 264 266 268 270 270 269 269 269 268 269 270 271 271 274 277 276 274 275 277 278 278 279 280 281 282 283 283 284 286 287 288 289 289 290 289 289 290 290 290 290 290 290 290 291 291
249 250 250 248 248 248 249 248 248 248 247 245 244 245 246 246 245 244 245 247 248 248 246 244 242 241 242 243 245 247 247 248 249 251 253 255 257 259 260 262 264 267 269 269 269 269 269 269 269 270 271 271 271 274 275 276 275 275 277 278 278 279 281 282 283 283 283 284 286 287 288 288 289 289 289 289 289 289 289 289 289 289 290 290 290
251 251 251 250 249 249 248 249 249 249 249 248 247 246 246 248 249 249 249 250 252 252 250 249 248 247 247 248 250 251 251 250 251 252 254 256 258 259 261 263 265 267 269 269 269 269 269 268 269 271 271 271 271 273 274 275 276 276 277 278 279 281 283 283 284 284 284 285 286 286 286 286 287 287 287 287 288 288 288 288 288 289 289 289 289
252 252 252 250 250 249 249 250 250 249 249 249 249 247 247 247 249 251 252 252 254 255 254 253 252 251 251 251 253 254 255 255 255 256 257 259 260 262 264 265 266 268 269 269 270 269 268 268 270 272 272 272 272 274 274 275 276 277 278 279 280 281 282 283 283 284 284 285 285 284 284 285 285 285 285 286 286 287 287 287 288 288 288 288 289
250 252 253 251 250 249 249 249 251 250 250 250 250 250 250 248 248 250 252 254 256 257 258 258 257 255 255 255 256 257 257 258 259 260 261 262 264 265 266 267 267 267 267 268 270 269 268 269 272 273 274 274 274 275 275 276 277 277 278 279 279 280 281 282 282 283 284 284 283 283 283 284 284 284 284 285 285 286 286 287 287 287 288 288 288
249 251 253 252 251 251 251 250 251 251 251 251 252 253 253 251 250 251 252 254 256 258 259 260 260 259 260 260 260 260 260 261 262 263 264 265 267 267 267 267 267 266 266 268 269 268 269 272 274 274 274 275 275 275 276 276 277 277 278 279 279 280 281 281 282 283 283 283 283 282 283 283 283 283 284 284 284 285 286 286 287 287 287 287 287
251 252 253 253 252 252 252 252 252 252 252 253 254 254 254 253 252 252 252 253 255 257 258 259 259 260 262 263 263 263 263 264 265 265 266 267 269 269 269 268 267 266 267 269 270 269 270 273 274 275 275 275 275 276 276 276 277 278 279 279 280 281 282 282 282 282 282 282 283 282 282 282 282 282 282 282 283 284 285 285 286 286 286 286 287
252 252 253 253 253 252 253 253 254 254 255 255 255 255 255 255 254 254 254 254 255 255 256 257 258 260 262 263 263 264 265 266 266 266 267 268 269 269 269 268 267 268 270 272 272 271 271 273 274 274 275 275 276 276 276 277 278 278 279 280 280 281 282 282 282 282 282 282 282 281 281 281 281 281 281 281 282 283 283 284 284 285 285 286 287
252 252 252 252 252 252 253 254 255 256 257 257 256 256 256 256 256 255 255 256 256 256 256 256 257 259 261 262 263 264 265 266 266 267 268 268 268 268 268 268 268 270 272 273 272 271 272 273 273 274 275 275 276 276 277 278 278 278 279 280 280 281 281 281 281 281 281 281 281 281 281 281 281 281 281 281 282 282 282 283 284 284 285 286 286
253 252 252 252 252 253 254 255 255 255 256 256 256 256 256 256 256 256 256 257 257 257 256 256 257 259 260 260 261 262 264 265 266 267 267 268 268 267 267 268 269 271 272 272 272 272 272 273 273 274 274 275 275 276 276 277 277 278 278 279 279 280 281 280 280 280 280 280 280 280 280 281 281 281 281 282 282 283 283 284 284 285 286 287 287
254 253 253 253 253 253 253 253 253 252 252 253 253 253 254 255 256 257 257 258 259 259 258 258 258 259 260 260 260 262 264 265 265 266 267 268 268 268 269 269 269 270 271 271 272 272 273 273 273 273 274 274 275 275 276 276 277 277 277 277 278 279 280 280 280 279 279 279 279 280 280 281 281 281 282 282 283 283 284 285 286 286 287 287 287
256 255 254 254 255 255 254 254 253 253 252 252 252 252 253 255 256 258 259 259 260 261 260 259 259 260 260 260 261 262 263 264 265 265 266 268 268 269 269 269 269 270 270 271 271 272 273 273 273 273 273 274 274 274 275 275 275 276 276 276 277 278 278 279 279 279 278 279 279 279 280 280 281 281 282 283 283 284 285 285 286 286 286 286 287
258 257 256 255 256 255 255 255 255 255 254 254 254 254 255 256 257 258 259 260 261 261 261 260 260 261 261 261 262 263 264 265 266 267 268 268 269 269 269 269 269 269 270 271 271 272 272 273 273 273 273 273 273 274 274 274 275 275 275 276 276 277 277 277 278 278 278 278 279 279 280 280 281 282 283 283 284 284 285 285 285 285 286 286 286
258 258 257 257 257 256 256 256 255 255 255 255 255 256 257 258 259 260 260 261 261 261 260 260 261 262 263 263 263 264 265 266 267 268 269 269 269 269 269 268 268 269 270 271 271 271 272 272 273 273 273 273 273 274 274 274 274 275 275 275 276 276 276 277 277 278 278 279 279 280 280 281 282 283 283 284 284 284 285 285 285 285 286 286 286
258 257 257 257 257 257 257 256 255 255 255 254 255 255 257 258 259 259 260 260 260 260 260 260 261 262 263 264 265 266 266 266 267 268 268 269 268 268 267 268 268 269 270 270 271 271 271 272 272 273 274 274 274 275 275 275 275 275 275 275 276 276 276 277 277 278 278 279 279 280 281 282 282 283 284 284 284 284 285 285 285 286 286 286 286
258 258 257 257 257 257 257 257 257 256 256 255 254 255 255 256 257 258 259 259 259 259 259 260 260 261 262 264 265 265 265 265 265 266 266 266 267 267 267 268 268 269 270 271 271 272 272 272 272 273 274 274 275 275 275 276 276 276 276 276 276 276 277 278 278 279 279 280 280 281 282 283 283 284 284 284 285 285 285 286 286 286 286 286 286
259 259 258 258 258 258 258 258 258 257 256 255 255 256 256 257 258 259 260 260 260 260 260 260 261 261 262 263 263 263 263 264 265 265 265 266 266 266 266 267 268 269 269 270 271 272 272 273 273 273 274 274 275 275 275 276 276 276 276 276 276 277 278 278 279 280 281 281 282 282 283 284 284 285 285 285 285 285 286 286 286 286 286 287 287
259 258 258 258 259 259 258 258 256 255 255 256 257 257 258 259 260 260 260 260 260 260 260 261 261 262 263 263 263 263 264 264 265 266 266 266 267 267 266 267 267 268 269 270 271 272 272 273 273 273 274 274 275 275 276 276 275 275 275 276 277 277 278 279 280 280 281 282 282 283 284 284 285 285 285 285 285 285 286 286 286 286 287 287 287
259 258 257 258 259 259 258 256 255 254 254 255 257 258 259 261 261 261 260 260 260 260 261 262 262 263 263 264 264 265 265 265 266 266 267 267 268 268 267 268 268 269 269 270 271 272 272 272 273 273 273 274 274 275 275 275 275 275 275 276 277 277 278 279 280 280 281 282 283 284 284 285 285 285 285 285 285 285 286 286 286 286 287 287 287
260 258 257 258 258 258 257 256 255 255 255 255 256 258 259 261 261 261 261 260 260 261 262 263 263 264 265 265 265 265 265 265 266 267 268 268 268 268 269 269 270 270 271 271 272 273 273 273 273 273 274 274 274 274 275 275 275 275 275 276 277 277 278 279 280 281 282 283 284 284 284 284 285 285 285 285 285 285 285 286 286 286 286 287 287
261 259 258 257 256 255 255 255 256 257 257 258 258 259 259 260 261 262 262 261 261 261 262 263 264 266 266 267 267 266 266 267 268 268 269 269 269 269 270 271 271 272 272 273 273 274 274 274 274 274 274 274 274 275 275 275 275 275 276 276 277 278 279 280 281 282 283 283 284 285 284 284 284 284 284 284 285 285 285 285 286 286 286 287 287
262 260 259 258 256 255 255 255 256 257 258 258 258 257 258 259 260 261 261 261 261 262 262 263 265 266 266 266 267 268 268 268 268 268 268 269 269 270 271 272 272 272 273 274 274 275 276 275 275 275 275 276 276 276 276 276 275 275 276 277 277 279 280 281 281 283 283 284 285 285 285 284 284 284 284 284 284 285 285 286 286 286 287 287 288
261 260 260 259 258 257 256 255 255 255 255 256 256 257 259 260 261 260 260 260 262 263 264 265 266 266 266 267 268 269 269 269 268 268 269 270 271 272 272 273 273 273 274 274 275 276 277 276 276 276 276 277 277 277 276 276 275 276 276 277 278 279 280 281 282 283 284 284 285 285 285 285 284 284 284 284 285 285 285 286 286 287 287 288 288